Flag for Romania Weather past 2 weeks in Constanța, Romania

Now
68 °F

Fog.


Feels Like: 68 °F
Forecast: 65 / 84 °F
Wind: N/A

Location: Constanta

Current Time: Sep 2, 2015 at 6:28:51 AM

Latest Report: Sep 2, 2015 at 6:00 AM


Visibility: 2 mi

Pressure: 29.90 "Hg

Humidity: 97%

Dew point: 67 °F

Location of ConstanțaLocation

Historic Weather in Constanța — Graph

°F

Constanța temperature yesterday

Maximum temperature yesterday: 81 °F (at 2:00 PM)
Minimum temperature yesterday: 70 °F (at 4:00 AM)
Average temperature yesterday: 76 °F

Past Weeks' High & Low Weather Summary

 TemperatureHumidityPressure
High88 °F (Aug 29, 5:00 PM)99% (Aug 18, 5:00 AM)30.22 "Hg (Aug 18, 5:00 AM)
Low62 °F (Aug 24, 8:00 AM)28% (Aug 28, 2:00 PM)29.83 "Hg (Aug 18, 9:00 AM)
Average73 °F68%30.06 "Hg
* Reported Aug 18 5:00 AM — Sep 2 5:00 AM, Constanța, Weather by CustomWeather, © 2015

Note: Actual official high and low records may vary slightly from our data, if they occured in-between our weather recording intervals... More about our weather records

Advertising

Constanța weather history for previous 24 hours

 ConditionsComfort  
Time TempWeatherWind HumidityBarometerVisibility
5:00 AM
Wed, Sep 2
69 °FClear.No wind97%29.91 "Hg6 mi
4:00 AM68 °FClear.N/A97%29.92 "Hg6 mi
3:00 AM69 °FClear.N/A97%29.94 "Hg6 mi
2:00 AM69 °FClear.N/A94%29.95 "Hg6 mi
12:00 AM71 °FClear.N/A88%29.96 "Hg6 mi
11:00 PM
Tue, Sep 1
73 °FClear.N/A83%29.97 "Hg6 mi
10:00 PM74 °FClear.No wind81%29.98 "Hg6 mi
9:00 PM75 °FClear.1 mph77%29.98 "Hg6 mi
8:00 PM76 °FClear.1 mph74%29.97 "Hg6 mi
7:00 PM77 °FSunny.2 mph69%29.98 "Hg6 mi
6:00 PM78 °FSunny.3 mph65%29.99 "Hg6 mi
5:00 PM80 °FSunny.2 mph62%30.01 "Hg6 mi
4:00 PM80 °FSunny.2 mph57%30.02 "Hg6 mi
3:00 PM80 °FSunny.2 mph57%30.03 "Hg6 mi
2:00 PM81 °FSunny.2 mph59%30.04 "Hg6 mi
1:00 PM80 °FSunny.3 mph60%30.05 "Hg6 mi
12:00 PM79 °FSunny.1 mph63%30.05 "Hg6 mi
11:00 AM79 °FSunny.2 mph69%30.05 "Hg6 mi
10:00 AM78 °FSunny.1 mph61%30.06 "Hg6 mi
9:00 AM76 °FSunny.1 mph70%30.05 "Hg6 mi
8:00 AM71 °FSunny.1 mph80%30.06 "Hg6 mi
Weather by CustomWeather, © 2015

See weather overviewHow to use our weather pages